Fulton, NY

7:59 PM EST on December 06, 2019 (GMT -0500)
Oswego County

Weather History for KFZY - May, 2019

Change the Weather History Date:

Monday, May 13, 2019

  Actual Average (KSYR) Record (KSYR)
Temperature  
Mean Temperature 45 °F -  
Max Temperature 48 °F 66 °F 86 °F (2004)
Min Temperature 42 °F 44 °F 30 °F (2005)
Degree Days  
Heating Degree Days 20    
Moisture  
Dew Point 40 °F    
Average Humidity 83    
Maximum Humidity 86    
Minimum Humidity 74    
Precipitation  
Precipitation 0.62 in - - ()
Sea Level Pressure  
Sea Level Pressure 29.81 in    
Wind  
Wind Speed 5 mph (ESE)    
Max Wind Speed 8 mph    
Max Gust Speed 18 mph    
Visibility 10 miles    
Events Rain    
Averages and records for this station are not official NWS values.
T = Trace of Precipitation, MM = Missing Value Source: NWS Daily Summary

Daily Weather History Graph

Daily Weather History Graph

Search for Another Location

Airport or City:

Astronomy

May. 13, 2019 Rise Set
Actual Time 5:43 AM EDT 8:20 PM EDT
Civil Twilight 5:11 AM EDT 8:53 PM EDT
Nautical Twilight 4:30 AM EDT 9:34 PM EDT
Astronomical Twilight 3:43 AM EDT 10:21 PM EDT
Moon 2:16 PM EDT (5/13) 3:14 AM EDT (5/13)
Length of Visible Light 15h 42m
Length of Day
14h 36m
Waxing Gibbous, 68% of the Moon is Illuminated
May 13
Waxing Gibbous
May 18
Full
May 26
Last Quarter
Jun 3
New
Jun 10
First Quarter

Hourly Weather History & Observations

Time (EDT) Temp. Windchill Dew Point Humidity Pressure Visibility Wind Dir Wind Speed Gust Speed Precip Events Conditions
12:54 AM 42.1 °F - 37.9 °F 85% 29.92 in 10.0 mi Calm Calm - 0.01 in   Overcast
1:54 AM 43.0 °F 40.3 °F 37.9 °F 82% 29.89 in 10.0 mi Variable 4.6 mph - N/A   Overcast
2:54 AM 43.0 °F 41.3 °F 37.9 °F 82% 29.88 in 10.0 mi Variable 3.5 mph - N/A   Overcast
3:54 AM 43.0 °F - 37.9 °F 82% 29.86 in 10.0 mi Calm Calm - 0.00 in Rain Light Rain
4:54 AM 43.0 °F 39.5 °F 37.9 °F 82% 29.83 in 10.0 mi East 5.8 mph - 0.02 in Rain Light Rain
5:54 AM 43.0 °F 40.3 °F 37.9 °F 82% 29.84 in 10.0 mi East 4.6 mph - 0.01 in   Overcast
6:54 AM 43.0 °F 39.5 °F 37.9 °F 82% 29.85 in 10.0 mi East 5.8 mph - 0.01 in Rain Light Rain
7:54 AM 43.0 °F 40.3 °F 39.0 °F 86% 29.84 in 10.0 mi Variable 4.6 mph - 0.02 in Rain Light Rain
8:21 AM 43.0 °F 40.3 °F 39.0 °F 86% 29.84 in 10.0 mi Variable 4.6 mph - 0.01 in Rain Light Rain
8:54 AM 44.1 °F 40.8 °F 39.9 °F 85% 29.85 in 10.0 mi Variable 5.8 mph - 0.01 in Rain Light Rain
9:54 AM 45.0 °F 41.2 °F 41.0 °F 86% 29.83 in 10.0 mi Variable 6.9 mph - 0.01 in   Overcast
10:46 AM 46.9 °F - 42.1 °F 83% 29.81 in 10.0 mi Variable 6.9 mph - 0.00 in   Overcast
10:54 AM 46.9 °F - 41.0 °F 80% 29.82 in 10.0 mi SE 8.1 mph - 0.00 in   Overcast
11:54 AM 48.0 °F - 39.9 °F 74% 29.80 in 10.0 mi ESE 8.1 mph 17.3 mph N/A   Overcast
12:54 PM 48.0 °F - 41.0 °F 77% 29.79 in 10.0 mi North - - 0.00 in   Overcast
1:16 PM 46.9 °F - 39.9 °F 77% 29.78 in 10.0 mi Variable 5.8 mph - 0.00 in   Overcast
1:24 PM 46.9 °F - 41.0 °F 80% 29.78 in 10.0 mi Variable 4.6 mph - 0.00 in   Overcast
1:54 PM 46.9 °F - 41.0 °F 80% 29.81 in 10.0 mi SE 8.1 mph 18.4 mph 0.00 in Rain Light Rain
2:54 PM 46.0 °F 42.5 °F 42.1 °F 86% 29.80 in 10.0 mi SE 6.9 mph - 0.04 in Rain Light Rain
3:54 PM 46.0 °F 43.1 °F 42.1 °F 86% 29.79 in 10.0 mi ESE 5.8 mph - 0.03 in Rain Light Rain
4:44 PM 46.0 °F 41.9 °F 41.0 °F 83% 29.77 in 10.0 mi East 8.1 mph - 0.02 in Rain Light Rain
4:46 PM 46.0 °F 41.9 °F 41.0 °F 83% 29.77 in 10.0 mi East 8.1 mph - 0.02 in Rain Light Rain
4:54 PM 46.0 °F 43.9 °F 41.0 °F 83% 29.78 in 10.0 mi Variable 4.6 mph - 0.03 in Rain Light Rain
5:01 PM 45.0 °F - 41.0 °F 86% 29.77 in 10.0 mi North - - 0.01 in Rain Rain
5:46 PM 45.0 °F 41.2 °F 41.0 °F 86% 29.78 in 10.0 mi Variable 6.9 mph - 0.09 in Rain Rain
5:54 PM 46.0 °F 44.8 °F 41.0 °F 83% 29.80 in 10.0 mi Variable 3.5 mph - 0.11 in Rain Rain
6:11 PM 46.0 °F 43.9 °F 41.0 °F 83% 29.78 in 10.0 mi Variable 4.6 mph - 0.04 in Rain Rain
6:54 PM 45.0 °F 41.8 °F 39.9 °F 82% 29.80 in 10.0 mi Variable 5.8 mph - 0.09 in Rain Light Rain
6:59 PM 45.0 °F 41.2 °F 39.9 °F 82% 29.79 in 10.0 mi Variable 6.9 mph - 0.00 in Rain Rain
7:18 PM 44.1 °F 39.5 °F 39.0 °F 82% 29.80 in 10.0 mi ESE 8.1 mph - 0.02 in Rain Light Rain
7:26 PM 44.1 °F 40.1 °F 39.0 °F 82% 29.80 in 10.0 mi Variable 6.9 mph - 0.03 in Rain Light Rain
7:54 PM 44.1 °F 40.8 °F 39.0 °F 82% 29.81 in 10.0 mi Variable 5.8 mph - 0.06 in Rain Light Rain
8:44 PM 43.0 °F - 39.0 °F 86% 29.80 in 10.0 mi North - - 0.03 in Rain Light Rain
8:54 PM 43.0 °F 40.3 °F 39.0 °F 86% 29.81 in 10.0 mi Variable 4.6 mph - 0.04 in Rain Light Rain
9:54 PM 43.0 °F 40.3 °F 37.9 °F 82% 29.82 in 10.0 mi Variable 4.6 mph - 0.04 in Rain Light Rain
10:54 PM 42.1 °F 38.4 °F 37.9 °F 85% 29.81 in 10.0 mi Variable 5.8 mph - 0.05 in Rain Light Rain
11:54 PM 42.1 °F 39.2 °F 37.9 °F 85% 29.81 in 10.0 mi Variable 4.6 mph - 0.04 in Rain Light Rain